This demonstration page uses our WeatherBlox Daily Observations layout. Learn more.

Left ArrowRight Arrow

Hourly Observations for October 6, 2018

Temp ( °F °C ) Dew Point ( °F °C ) Humidity (%) Winds ( mph kmh ) Pressure ( in mb ) Visibility ( mi km ) Precip ( " mm )
12:57 am 00:57 Clear 42 5.6 38 3.3 85 85 N 16 26 30.09 1019 10 16 0.00 0.00
1:57 am 01:57 Mostly Cloudy 42 5.6 38 3.3 85 85 N 18 30 30.08 1019 10 16 0.00 0.00
2:57 am 02:57 Cloudy 42 5.6 38 3.3 85 85 N 17 28 30.08 1019 10 16 0.00 0.00
3:57 am 03:57 Cloudy 42 5.6 38 3.3 85 85 N 12 19 30.14 1021 10 16 0.00 0.00
4:20 am 04:20 Cloudy 43 6 37 3 81 81 N 14 22 30.15 1021 10 16 0.00 0.00
4:57 am 04:57 Cloudy 42 5.6 38 3.3 85 85 N 17 28 30.12 1020 10 16 0.00 0.00
5:05 am 05:05 Cloudy 43 6 37 3 81 81 N 16 26 30.15 1021 10 16 0.00 0.00
5:57 am 05:57 Partly Cloudy 41 5 37 2.8 86 86 N 14 22 30.14 1021 10 16 0.00 0.00
6:57 am 06:57 Cloudy 40 4.4 36 2.2 86 86 N 8 13 30.15 1021 10 16 0.00 0.00
7:36 am 07:36 Cloudy 39 4 36 2 87 87 N 8 13 30.21 1023 10 16 0.00 0.00
7:57 am 07:57 Cloudy 39 3.9 36 2.2 89 89 NNE 7 11 30.17 1022 10 16 0.00 0.00
8:57 am 08:57 Cloudy 41 5 37 2.8 86 86 N 13 20 30.17 1022 10 16 0.00 0.00
9:26 am 09:26 Cloudy 43 6 37 3 81 81 N 14 22 30.21 1023 10 16 0.00 0.00
9:35 am 09:35 Cloudy 43 6 37 3 81 81 NNE 15 24 30.24 1024 10 16 0.00 0.00
9:57 am 09:57 Cloudy 42 5.6 37 2.8 82 82 NNE 15 24 30.19 1022 10 16 0.00 0.00
10:34 am 10:34 Mostly Cloudy 45 7 37 3 76 76 N 17 28 30.18 1022 10 16 0.00 0.00
10:57 am 10:57 Cloudy 45 7.2 36 2.2 71 71 N 18 30 30.19 1022 10 16 0.00 0.00
11:37 am 11:37 Partly Cloudy 48 9 37 3 66 66 NNE 15 24 30.21 1023 10 16 0.00 0.00
11:57 am 11:57 Partly Cloudy 48 8.9 37 2.8 66 66 NNE 13 20 30.20 1023 10 16 0.00 0.00
12:57 pm 12:57 Cloudy 52 11.1 37 2.8 57 57 NE 14 22 30.17 1022 10 16 0.00 0.00
1:57 pm 13:57 Cloudy 53 11.7 37 2.8 55 55 NNE 8 13 30.15 1021 10 16 0.00 0.00
2:57 pm 14:57 Sunny 54 12.2 37 2.8 53 53 NNE 9 15 30.11 1020 10 16 0.00 0.00
3:57 pm 15:57 Sunny 56 13.3 37 2.8 49 49 NE 9 15 30.09 1019 10 16 0.00 0.00
4:57 pm 16:57 Sunny 57 13.9 36 2.2 45 45 ENE 14 22 30.08 1019 10 16 0.00 0.00
5:57 pm 17:57 Mostly Cloudy 54 12.2 35 1.7 49 49 ENE 12 19 30.08 1019 10 16 0.00 0.00
6:57 pm 18:57 Cloudy 53 11.7 36 2.2 52 52 E 10 17 30.10 1019 10 16 0.00 0.00
7:57 pm 19:57 Mostly Cloudy 50 10 36 2.2 59 59 ENE 10 17 30.10 1019 10 16 0.00 0.00
8:57 pm 20:57 Cloudy 50 10 37 2.8 61 61 ENE 10 17 30.11 1020 10 16 0.00 0.00
9:57 pm 21:57 Cloudy 49 9.4 37 2.8 64 64 ENE 10 17 30.12 1020 10 16 0.00 0.00
10:57 pm 22:57 Cloudy 49 9.4 37 2.8 64 64 E 13 20 30.10 1019 10 16 0.00 0.00
11:57 pm 23:57 Cloudy 48 8.9 39 3.9 71 71 ESE 10 17 30.12 1020 10 16 0.00 0.00

Powered by AerisWeather